K5SOI Weather Reports


time (UTC)temp
C
wind
direction
speed
KPH
gust
KPH
rain 1hr
cm
rain 24hr
cm
rain mn
cm
humidity
%
barometer
mb
20260507023110 23 342 16.1 25.7 0.00 0.10 0.10 81 1010.3
20260507022608 23 349 14.5 24.1 0.00 0.10 0.10 83 1010.4
20260507022108 23 339 16.1 24.1 0.00 0.10 0.10 85 1010.2
20260507021609 24 338 11.3 19.3 0.00 0.10 0.10 89 1010.1
20260507021109 24 343 14.5 19.3 0.00 0.10 0.10 94 1010.0
20260507020608 25 341 8.0 16.1 0.00 0.10 0.10 98 1009.8
20260507020109 25 48 8.0 8.0 0.00 0.10 0.10 98 1009.5
20260507015608 25 85 8.0 9.7 0.00 0.10 0.10 97 1009.4
20260507015108 25 96 8.0 9.7 0.00 0.10 0.10 96 1009.3
20260507014608 25 89 4.8 8.0 0.00 0.10 0.10 96 1009.2
20260507013608 25 78 4.8 9.7 0.00 0.10 0.10 96 1008.9
20260507013108 25 86 8.0 12.9 0.00 0.10 0.10 96 1008.7
20260507012608 25 80 9.7 14.5 0.00 0.10 0.10 96 1008.6
20260507012108 25 98 12.9 16.1 0.00 0.10 0.10 95 1008.2
20260507011608 25 96 11.3 14.5 0.00 0.10 0.10 95 1008.3
20260507011107 25 90 11.3 12.9 0.00 0.10 0.10 95 1008.3
20260507010607 25 80 9.7 11.3 0.00 0.10 0.10 95 1008.4
20260507010109 26 81 8.0 9.7 0.00 0.10 0.10 95 1008.3
20260507005608 26 81 8.0 9.7 0.00 0.10 0.10 94 1008.2
20260507005107 26 67 8.0 8.0 0.00 0.10 0.10 94 1008.4
20260507004607 26 104 4.8 4.8 0.00 0.10 0.10 93 1008.3
20260507004107 26 104 4.8 4.8 0.00 0.10 0.10 92 1008.2
20260507003608 26 119 3.2 8.0 0.00 0.10 0.10 91 1008.2
20260507003107 27 107 6.4 9.7 0.00 0.10 0.10 89 1008.1
20260507002608 27 114 6.4 9.7 0.00 0.10 0.10 89 1008.1
20260507002106 27 111 8.0 11.3 0.00 0.10 0.10 89 1008.0
20260507001607 27 121 8.0 12.9 0.00 0.10 0.10 89 1007.9
20260507001107 27 123 8.0 16.1 0.00 0.10 0.10 88 1007.8
20260507000607 27 128 11.3 16.1 0.00 0.10 0.10 87 1007.8
20260507000107 27 128 12.9 19.3 0.00 0.10 0.10 87 1007.7
20260506235607 27 122 9.7 16.1 0.00 0.10 0.10 87 1007.7
20260506234107 28 129 11.3 16.1 0.00 0.10 0.10 86 1007.6
20260506233606 28 121 11.3 16.1 0.00 0.10 0.10 86 1007.6
20260506233107 28 109 14.5 19.3 0.00 0.10 0.10 86 1007.5
20260506232106 28 128 12.9 16.1 0.00 0.10 0.10 85 1007.5
20260506231606 28 117 12.9 19.3 0.00 0.10 0.10 86 1007.5
20260506231106 28 123 11.3 19.3 0.00 0.10 0.10 87 1007.5
20260506230606 27 117 12.9 19.3 0.00 0.10 0.10 86 1007.5
20260506230106 28 126 11.3 16.1 0.00 0.10 0.10 86 1007.5
20260506225606 28 127 9.7 16.1 0.00 0.10 0.10 86 1007.4
20260506225106 28 111 11.3 16.1 0.00 0.10 0.10 86 1007.4
20260506224606 28 123 11.3 16.1 0.00 0.10 0.10 86 1007.4
20260506224106 28 116 14.5 19.3 0.00 0.10 0.10 85 1007.3
20260506223606 28 127 14.5 19.3 0.00 0.10 0.10 85 1007.3
20260506223106 28 122 16.1 19.3 0.00 0.10 0.10 85 1007.2
20260506222605 28 116 19.3 24.1 0.00 0.10 0.10 84 1007.1
20260506222105 28 107 16.1 22.5 0.00 0.10 0.10 84 1007.1
20260506221606 28 122 16.1 24.1 0.00 0.10 0.10 85 1007.0
20260506221105 28 102 19.3 29.0 0.00 0.10 0.10 86 1007.2
20260506220107 28 109 19.3 25.7 0.00 0.10 0.10 85 1007.2
20260506215605 28 99 19.3 25.7 0.00 0.10 0.10 85 1007.2
20260506214605 28 105 19.3 24.1 0.00 0.10 0.10 84 1007.2
20260506214104 28 99 17.7 22.5 0.00 0.10 0.10 84 1007.2
20260506213605 28 94 17.7 20.9 0.00 0.10 0.10 82 1007.2
20260506213106 29 118 11.3 16.1 0.00 0.10 0.10 81 1007.2
20260506212604 29 136 11.3 19.3 0.00 0.10 0.10 82 1007.2
20260506212105 29 138 12.9 20.9 0.00 0.10 0.10 82 1007.2
20260506211604 29 104 17.7 24.1 0.00 0.10 0.10 84 1007.2
20260506211105 29 108 19.3 25.7 0.00 0.10 0.10 81 1007.1
20260506210605 30 121 11.3 19.3 0.00 0.10 0.10 79 1007.1
20260506210104 30 111 11.3 19.3 0.00 0.10 0.10 79 1007.2
20260506205604 31 157 8.0 16.1 0.00 0.10 0.10 77 1007.2
20260506205105 30 141 8.0 12.9 0.00 0.10 0.10 79 1007.2
20260506204605 30 127 9.7 14.5 0.00 0.10 0.10 79 1007.3
20260506204104 30 138 6.4 9.7 0.00 0.10 0.10 79 1007.4
20260506203604 30 215 9.7 14.5 0.00 0.10 0.10 78 1007.4
20260506203104 29 182 4.8 12.9 0.00 0.10 0.10 81 1007.5
20260506202604 29 208 1.6 11.3 0.00 0.10 0.10 80 1007.5
20260506202105 30 244 3.2 16.1 0.00 0.10 0.10 78 1007.5
20260506201604 30 178 6.4 16.1 0.00 0.10 0.10 80 1007.6
20260506201104 30 209 3.2 8.0 0.00 0.10 0.10 83 1007.6
20260506200604 29 185 4.8 14.5 0.00 0.10 0.10 83 1007.7
20260506195605 29 160 9.7 16.1 0.00 0.10 0.10 84 1007.9
20260506195104 28 134 11.3 19.3 0.00 0.10 0.10 84 1008.1
20260506194104 28 150 8.0 16.1 0.00 0.10 0.10 86 1008.3
20260506193604 28 143 14.5 20.9 0.00 0.10 0.10 85 1008.4
20260506193104 28 148 12.9 19.3 0.00 0.10 0.10 86 1008.4
20260506192604 28 155 11.3 19.3 0.00 0.10 0.10 86 1008.4
20260506192103 28 150 9.7 19.3 0.00 0.10 0.10 86 1008.4
20260506191604 28 136 12.9 19.3 0.00 0.10 0.10 87 1008.5
20260506191104 28 134 16.1 20.9 0.00 0.10 0.10 86 1008.5
20260506190603 27 139 14.5 20.9 0.00 0.10 0.10 88 1008.6
20260506185603 27 139 14.5 19.3 0.00 0.10 0.10 90 1008.7
20260506185103 27 146 12.9 19.3 0.00 0.10 0.10 89 1008.8
20260506184103 27 137 14.5 22.5 0.00 0.10 0.10 88 1008.8
20260506183604 27 165 11.3 16.1 0.00 0.10 0.10 87 1008.9
20260506183103 27 150 11.3 14.5 0.00 0.10 0.10 88 1009.0
20260506182602 27 164 8.0 14.5 0.00 0.10 0.10 88 1009.0
20260506182103 27 169 9.7 16.1 0.00 0.10 0.10 90 1009.2
20260506181602 27 162 8.0 12.9 0.00 0.10 0.10 89 1009.2
20260506181102 27 145 9.7 16.1 0.00 0.10 0.10 88 1009.2
20260506180103 27 159 11.3 19.3 0.00 0.10 0.10 87 1009.2
20260506175602 27 144 16.1 20.9 0.00 0.10 0.10 86 1009.2
20260506173603 27 144 14.5 20.9 0.00 0.10 0.10 91 1009.3
20260506173102 27 142 16.1 20.9 0.00 0.10 0.10 91 1009.3
20260506172603 27 139 14.5 19.3 0.00 0.10 0.10 91 1009.4
20260506172103 26 157 11.3 16.1 0.00 0.10 0.10 92 1009.4
20260506171602 26 140 14.5 19.3 0.00 0.10 0.10 92 1009.4
20260506171104 26 135 11.3 24.1 0.00 0.10 0.10 92 1009.4
20260506170602 26 126 9.7 16.1 0.00 0.10 0.10 93 1009.3
20260506170103 26 127 14.5 20.9 0.00 0.10 0.10 92 1009.4
20260506165602 26 148 12.9 19.3 0.00 0.10 0.10 92 1009.3
20260506165102 26 136 11.3 19.3 0.00 0.10 0.10 91 1009.3
20260506164602 27 138 12.9 19.3 0.00 0.10 0.10 91 1009.4
20260506164102 27 123 9.7 19.3 0.00 0.10 0.10 92 1009.3
20260506163603 27 124 12.9 19.3 0.00 0.10 0.10 92 1009.2
20260506163102 26 113 12.9 19.3 0.00 0.10 0.10 91 1009.2
20260506162102 26 126 12.9 22.5 0.00 0.10 0.10 91 1009.1
20260506161601 26 136 16.1 24.1 0.03 0.10 0.10 91 1009.1
20260506161102 26 119 11.3 19.3 0.03 0.10 0.10 93 1009.0
20260506155602 26 144 8.0 12.9 0.03 0.10 0.10 96 1008.7
20260506155102 26 144 3.2 8.0 0.03 0.10 0.10 95 1008.7
20260506154102 26 111 9.7 16.1 0.03 0.10 0.10 96 1008.5
20260506153601 26 109 11.3 14.5 0.03 0.10 0.10 95 1008.5
20260506153101 25 93 11.3 16.1 0.05 0.10 0.10 96 1008.5
20260506152102 25 102 11.3 16.1 0.05 0.10 0.10 96 1008.3
20260506151601 25 96 11.3 16.1 0.03 0.08 0.08 98 1008.2
20260506150601 25 113 11.3 12.9 0.03 0.08 0.08 98 1008.4
20260506150100 25 112 9.7 12.9 0.03 0.08 0.08 98 1008.3
20260506145600 25 109 11.3 14.5 0.03 0.08 0.08 98 1008.3
20260506145101 25 103 6.4 9.7 0.03 0.08 0.08 98 1008.1
20260506144102 25 102 8.0 11.3 0.05 0.08 0.08 98 1008.1
20260506143600 25 99 8.0 12.9 0.05 0.08 0.08 98 1008.1
20260506143101 25 91 11.3 16.1 0.03 0.05 0.05 98 1008.1
20260506142600 25 102 11.3 14.5 0.03 0.05 0.05 98 1008.1
20260506142100 25 98 11.3 14.5 0.03 0.05 0.05 98 1008.0
20260506141601 25 105 11.3 19.3 0.03 0.05 0.05 98 1008.0
20260506140600 25 100 11.3 14.5 0.03 0.05 0.05 98 1007.9
20260506140100 25 104 9.7 14.5 0.03 0.05 0.05 98 1007.9
20260506135600 24 103 9.7 12.9 0.03 0.05 0.05 98 1007.9
20260506134601 24 92 4.8 8.0 0.00 0.03 0.03 98 1008.1
20260506134100 24 86 6.4 11.3 0.00 0.03 0.03 98 1008.1
20260506133559 24 74 6.4 11.3 0.00 0.03 0.03 98 1008.1
20260506133100 24 84 8.0 9.7 0.00 0.03 0.03 98 1008.1
20260506132559 24 89 8.0 11.3 0.00 0.03 0.03 98 1008.1
20260506132101 24 73 8.0 9.7 0.00 0.03 0.03 99 1008.1
20260506131601 24 78 8.0 9.7 0.00 0.03 0.03 99 1008.2
20260506131100 24 88 4.8 8.0 0.00 0.03 0.03 99 1008.1
20260506130059 24 82 6.4 9.7 0.00 0.03 0.03 99 1007.9
20260506125559 24 88 8.0 9.7 0.00 0.03 0.03 99 1007.9
20260506124600 24 65 6.4 9.7 0.00 0.03 0.03 99 1008.0
20260506124059 24 71 4.8 8.0 0.00 0.03 0.03 99 1008.0
20260506123559 24 72 4.8 8.0 0.00 0.03 0.03 99 1008.0
20260506123059 24 84 6.4 9.7 0.00 0.03 0.03 99 1007.9
20260506122559 24 77 4.8 9.7 0.00 0.03 0.03 99 1007.9
20260506122059 23 77 3.2 4.8 0.00 0.03 0.03 99 1008.0
20260506121600 23 77 3.2 8.0 0.00 0.03 0.03 99 1008.0
20260506120559 23 101 6.4 8.0 0.00 0.03 0.03 99 1007.8
20260506120059 24 95 6.4 8.0 0.00 0.03 0.03 98 1007.8
20260506115059 23 93 4.8 9.7 0.00 0.03 0.03 98 1007.6
20260506114558 24 98 6.4 9.7 0.00 0.03 0.03 98 1007.6
20260506114101 24 106 8.0 8.0 0.00 0.03 0.03 98 1007.6
20260506113059 24 110 8.0 9.7 0.00 0.03 0.03 98 1007.5
20260506112558 24 113 8.0 12.9 0.00 0.03 0.03 98 1007.4
20260506112059 24 119 8.0 12.9 0.00 0.03 0.03 98 1007.4
20260506111559 24 108 9.7 12.9 0.00 0.03 0.03 98 1007.3
20260506111059 24 110 9.7 14.5 0.00 0.03 0.03 98 1007.3
20260506110558 24 109 11.3 14.5 0.00 0.03 0.03 98 1007.3
20260506110058 24 106 11.3 14.5 0.00 0.03 0.03 99 1007.3
20260506105558 24 108 9.7 12.9 0.00 0.03 0.03 99 1007.3
20260506105058 24 115 9.7 11.3 0.00 0.03 0.03 98 1007.3
20260506104559 24 114 8.0 11.3 0.00 0.03 0.03 98 1007.3
20260506103057 24 118 9.7 14.5 0.00 0.03 0.03 98 1007.4
20260506102557 24 109 9.7 12.9 0.00 0.03 0.03 98 1007.5
20260506101558 24 123 8.0 11.3 0.00 0.03 0.03 98 1007.3
20260506100557 24 114 8.0 9.7 0.00 0.03 0.03 98 1007.3
20260506100057 24 115 6.4 8.0 0.00 0.03 0.03 98 1007.3
20260506095558 24 127 4.8 8.0 0.00 0.03 0.03 98 1007.3
20260506095057 24 134 6.4 9.7 0.00 0.03 0.03 98 1007.3
20260506094557 24 114 8.0 9.7 0.00 0.03 0.03 98 1007.2
20260506094058 24 109 9.7 11.3 0.00 0.03 0.03 98 1007.2
20260506093558 24 114 8.0 11.3 0.00 0.03 0.03 98 1007.2
20260506093057 24 116 8.0 9.7 0.00 0.03 0.03 98 1007.2
20260506092556 24 115 8.0 9.7 0.00 0.03 0.03 98 1007.2
20260506092057 24 110 8.0 9.7 0.00 0.03 0.03 98 1007.3
20260506091556 24 108 8.0 9.7 0.00 0.03 0.03 98 1007.3
20260506091059 24 112 8.0 11.3 0.00 0.03 0.03 98 1007.1
20260506090057 24 112 8.0 11.3 0.00 0.03 0.03 98 1007.1
20260506084556 24 107 9.7 12.9 0.00 0.03 0.03 98 1007.1
20260506083558 24 117 8.0 11.3 0.00 0.03 0.03 98 1007.1
20260506082556 24 114 9.7 12.9 0.00 0.03 0.03 98 1007.2
20260506081556 24 113 9.7 12.9 0.00 0.03 0.03 98 1007.2
20260506081056 24 112 8.0 9.7 0.00 0.03 0.03 98 1007.3
20260506080556 24 116 9.7 12.9 0.03 0.03 0.03 98 1007.3
20260506073056 24 111 8.0 9.7 0.03 0.03 0.03 98 1007.6
20260506072555 24 110 6.4 9.7 0.03 0.03 0.03 98 1007.7
20260506072056 24 136 4.8 8.0 0.03 0.03 0.03 96 1007.8
20260506071556 24 153 6.4 12.9 0.03 0.03 0.03 96 1007.9
20260506071055 24 148 9.7 12.9 0.03 0.03 0.03 96 1007.9
20260506070555 24 128 9.7 12.9 0.00 0.00 0.00 95 1008.0
20260506062056 25 143 11.3 16.1 0.00 0.00 0.00 93 1008.3
20260506061555 25 148 12.9 19.3 0.00 0.00 0.00 93 1008.3
20260506061055 25 152 11.3 16.1 0.00 0.00 0.00 93 1008.3
20260506060555 25 144 11.3 19.3 0.00 0.00 0.00 93 1008.3
20260506051055 25 140 14.5 20.9 0.00 0.00 0.00 92 1007.9
20260506050554 25 142 16.1 25.7 0.00 0.00 0.00 92 1007.9
20260506045053 25 137 17.7 25.7 0.00 0.00 0.00 92 1007.9
20260506044054 25 137 19.3 24.1 0.00 0.00 0.00 92 1007.8
20260506043554 25 141 19.3 29.0 0.00 0.00 0.00 93 1007.7
20260506043054 25 137 17.7 25.7 0.00 0.00 0.00 92 1007.7
20260506042554 25 136 19.3 29.0 0.00 0.00 0.00 92 1007.7
20260506041553 25 143 20.9 32.2 0.00 0.00 0.00 92 1007.6
20260506041053 25 139 17.7 29.0 0.00 0.00 0.00 92 1007.6
20260506040053 25 136 16.1 24.1 0.00 0.00 0.00 92 1007.6
20260506035553 25 133 19.3 32.2 0.00 0.00 0.00 92 1007.7
20260506035054 25 135 19.3 29.0 0.00 0.00 0.00 92 1007.6
20260506034553 25 138 19.3 25.7 0.00 0.00 0.00 92 1007.6
20260506034054 25 142 17.7 24.1 0.00 0.00 0.00 92 1007.6
20260506033553 25 137 17.7 24.1 0.00 0.00 0.00 92 1007.6
20260506033053 25 134 16.1 24.1 0.00 0.00 0.00 92 1007.6
20260506032554 25 139 14.5 22.5 0.00 0.00 0.00 92 1007.6
20260506032053 25 143 16.1 20.9 0.00 0.00 0.00 92 1007.6
20260506031053 25 146 11.3 19.3 0.00 0.00 0.00 92 1007.6
20260506030552 25 138 16.1 19.3 0.00 0.00 0.00 92 1007.5
20260506030052 25 135 14.5 20.9 0.00 0.00 0.00 92 1007.4
20260506025553 25 138 16.1 20.9 0.00 0.00 0.00 91 1007.4
20260506024553 25 138 14.5 19.3 0.00 0.00 0.00 91 1007.2
20260506024053 25 145 14.5 24.1 0.00 0.00 0.00 91 1007.2
20260506023552 25 139 12.9 19.3 0.00 0.00 0.00 91 1007.0